EDDF

Frankfurt am Main Airport

Airport
ICAO code
EDDF
IATA Code
FRA
Summary
ICAO Region
EUR
ICAO Territory
Location

Frankfurt,

Serving
Frankfurt
Elevation
364 ft
Coordinates
50° 2' 28" N , 8° 34' 24" E
KCC
Airport LOS
Parallel Runway Operation
Metar
Observation
EDDF 010520Z AUTO 18010KT 9999 -RA FEW025 09/08 Q1009
Station
Frankfurt / M-Flughafen
Date/Time
2022-10-01 05:20:00
Wind direction
180°
Wind speed
10 kts
Lowest cloud amount
few clouds
Temperature
9°C
Dew point
8°C
Humidity
93%
QNH
1009 hPa
Weather condition
light rain

Description

International airport serving Frankfurt am Main, Germany.

Climatology

Temperate Marine climate/Oceanic climate (Köppen climate classification Cfb) - Moderately cool summer and comparatively warm winter.

Runways

Designator Length Width Surface Rops
07C/25C 4000 60 CON Yes/Yes
07R/25L 4000 45 CON Yes/Yes
18/36 4000 45 CON Yes/Yes

SKYbrary Partners:

Safety knowledge contributed by: